SSR90BM LIME-LEMH

Flight info

Callsign SSR90BM
Flight time N/A
Altitude 35000
Route ITCAP DCT PIDAD DCT TALEP DCT RARQU DCT BALEN UT250 RIXOT
Aircraft C525/L-SDFGRYW/SB1

Departure

Time 2026-05-01 14:21
Airport Il Caravaggio International Airport (LIME)

Arrival

Time N/A
Airport Menorca Airport (LEMH)
Time Latitude Longitude Altitude Speed Heading
2026-05-01 13:54 45.67189 9.69966 793 ft 0 kts 195°
2026-05-01 14:13 45.67182 9.69963 793 ft 1 kts 195°
2026-05-01 14:13 45.67169 9.69958 792 ft 2 kts 196°
2026-05-01 14:14 45.67149 9.69950 791 ft 3 kts 195°
2026-05-01 14:14 45.67113 9.69936 790 ft 6 kts 193°
2026-05-01 14:14 45.67100 9.69983 790 ft 6 kts 105°
2026-05-01 14:14 45.67086 9.70060 790 ft 9 kts 105°
2026-05-01 14:15 45.67069 9.70146 789 ft 9 kts 105°
2026-05-01 14:15 45.67053 9.70239 789 ft 6 kts 105°
2026-05-01 14:15 45.67038 9.70315 789 ft 8 kts 105°
2026-05-01 14:15 45.67021 9.70410 789 ft 10 kts 105°
2026-05-01 14:16 45.67001 9.70518 789 ft 12 kts 105°
2026-05-01 14:16 45.66978 9.70638 790 ft 12 kts 103°
2026-05-01 14:16 45.66955 9.70768 790 ft 14 kts 105°
2026-05-01 14:16 45.66928 9.70914 790 ft 14 kts 106°
2026-05-01 14:17 45.66900 9.71066 788 ft 17 kts 104°
2026-05-01 14:17 45.66866 9.71249 779 ft 18 kts 105°
2026-05-01 14:17 45.66830 9.71448 775 ft 21 kts 107°
2026-05-01 14:17 45.66792 9.71641 772 ft 19 kts 105°
2026-05-01 14:18 45.66756 9.71842 770 ft 21 kts 104°
2026-05-01 14:18 45.66717 9.72052 768 ft 21 kts 105°
2026-05-01 14:18 45.66677 9.72266 763 ft 23 kts 105°
2026-05-01 14:18 45.66647 9.72422 762 ft 24 kts 105°
2026-05-01 14:19 45.66592 9.72642 759 ft 13 kts 163°
2026-05-01 14:19 45.66494 9.72612 757 ft 9 kts 195°
2026-05-01 14:19 45.66447 9.72540 757 ft 10 kts 261°
2026-05-01 14:19 45.66452 9.72486 758 ft 0 kts 284°
2026-05-01 14:20 45.66465 9.72416 759 ft 28 kts 284°
2026-05-01 14:20 45.66773 9.70754 870 ft 124 kts 283°
2026-05-01 14:20 45.67008 9.69522 1240 ft 133 kts 285°
2026-05-01 14:21 45.67121 9.68164 1606 ft 148 kts 252°
2026-05-01 14:21 45.66659 9.66848 2063 ft 159 kts 235°
2026-05-01 14:21 45.65969 9.65572 2630 ft 165 kts 230°
2026-05-01 14:22 45.64447 9.63143 3855 ft 169 kts 226°
2026-05-01 14:22 45.63640 9.61918 4433 ft 172 kts 226°
2026-05-01 14:22 45.62810 9.60683 5013 ft 175 kts 226°
2026-05-01 14:22 45.61955 9.59423 5601 ft 177 kts 226°
2026-05-01 14:23 45.61102 9.58179 6171 ft 179 kts 226°
2026-05-01 14:23 45.60217 9.56896 6725 ft 181 kts 226°
2026-05-01 14:23 45.59177 9.55939 7221 ft 185 kts 194°
2026-05-01 14:23 45.57894 9.55744 7803 ft 184 kts 180°
2026-05-01 14:24 45.56614 9.55790 8305 ft 187 kts 175°
2026-05-01 14:24 45.55313 9.55903 8843 ft 188 kts 175°
2026-05-01 14:24 45.54002 9.56037 9341 ft 191 kts 174°
2026-05-01 14:24 45.52653 9.56184 9832 ft 194 kts 173°
2026-05-01 14:25 45.51321 9.56334 10364 ft 193 kts 173°
2026-05-01 14:25 45.49950 9.56491 10842 ft 196 kts 173°
2026-05-01 14:25 45.48586 9.56649 11320 ft 198 kts 172°
2026-05-01 14:25 45.47206 9.56811 11792 ft 200 kts 172°
2026-05-01 14:26 45.45813 9.56975 12271 ft 201 kts 171°
2026-05-01 14:26 45.43005 9.57307 13187 ft 204 kts 171°
2026-05-01 14:26 45.41582 9.57408 13616 ft 209 kts 181°
2026-05-01 14:27 45.40136 9.56996 14017 ft 215 kts 192°
2026-05-01 14:27 45.38686 9.56380 14450 ft 217 kts 195°
2026-05-01 14:27 45.37244 9.55720 14880 ft 219 kts 195°
2026-05-01 14:28 45.34335 9.54375 15699 ft 222 kts 195°
2026-05-01 14:28 45.32845 9.53688 16098 ft 224 kts 195°
2026-05-01 14:28 45.31356 9.53004 16502 ft 226 kts 196°
2026-05-01 14:28 45.29869 9.52321 16914 ft 227 kts 195°
2026-05-01 14:29 45.28363 9.51632 17304 ft 228 kts 195°
2026-05-01 14:29 45.26841 9.50936 17686 ft 230 kts 196°
2026-05-01 14:30 45.22210 9.48823 18782 ft 236 kts 196°
2026-05-01 14:30 45.20645 9.48110 19151 ft 237 kts 196°
2026-05-01 14:30 45.19081 9.47399 19520 ft 238 kts 197°
2026-05-01 14:31 45.15889 9.45948 20213 ft 241 kts 197°
2026-05-01 14:31 45.14301 9.45227 20562 ft 243 kts 197°
2026-05-01 14:31 45.12698 9.44499 20905 ft 244 kts 197°
2026-05-01 14:31 45.11054 9.43754 21197 ft 247 kts 197°
2026-05-01 14:32 45.09409 9.43008 21552 ft 247 kts 197°
2026-05-01 14:32 45.07784 9.42272 21898 ft 247 kts 197°
2026-05-01 14:32 45.06125 9.41522 22174 ft 251 kts 197°
2026-05-01 14:32 45.04456 9.40766 22485 ft 252 kts 197°
2026-05-01 14:33 45.02760 9.40000 22809 ft 254 kts 197°
2026-05-01 14:33 45.01090 9.39245 23091 ft 256 kts 198°
2026-05-01 14:33 44.99392 9.38479 23430 ft 255 kts 198°
2026-05-01 14:33 44.97675 9.37704 23690 ft 258 kts 198°
2026-05-01 14:34 44.95981 9.36940 24014 ft 258 kts 198°
2026-05-01 14:34 44.94250 9.36160 24292 ft 260 kts 198°
2026-05-01 14:34 44.92517 9.35379 24595 ft 260 kts 198°
2026-05-01 14:34 44.90799 9.34606 24859 ft 262 kts 197°
2026-05-01 14:35 44.89025 9.33808 25179 ft 261 kts 197°
2026-05-01 14:35 44.87301 9.33033 25406 ft 264 kts 197°
2026-05-01 14:35 44.85548 9.32246 25669 ft 264 kts 197°
2026-05-01 14:35 44.83754 9.31441 25888 ft 267 kts 197°
2026-05-01 14:36 44.81983 9.30646 26172 ft 266 kts 197°
2026-05-01 14:36 44.80236 9.29863 26387 ft 268 kts 197°
2026-05-01 14:36 44.78398 9.29040 26640 ft 269 kts 197°
2026-05-01 14:36 44.76633 9.28249 26889 ft 271 kts 197°
2026-05-01 14:37 44.74812 9.27434 27178 ft 271 kts 198°
2026-05-01 14:37 44.73003 9.26626 27442 ft 271 kts 197°
2026-05-01 14:37 44.71207 9.25823 27666 ft 273 kts 198°
2026-05-01 14:37 44.69412 9.25022 27934 ft 274 kts 198°
2026-05-01 14:38 44.67565 9.24197 28187 ft 274 kts 198°
2026-05-01 14:38 44.65767 9.23395 28437 ft 275 kts 198°
2026-05-01 14:38 44.63941 9.22582 28673 ft 275 kts 198°
2026-05-01 14:38 44.62105 9.21764 28878 ft 278 kts 198°
2026-05-01 14:39 44.60272 9.20948 29140 ft 277 kts 198°
2026-05-01 14:39 44.58419 9.20124 29355 ft 279 kts 198°
2026-05-01 14:39 44.56558 9.19296 29586 ft 280 kts 198°
2026-05-01 14:39 44.54691 9.18467 29765 ft 282 kts 198°
2026-05-01 14:40 44.52815 9.17635 30042 ft 281 kts 198°
2026-05-01 14:40 44.50954 9.16809 30218 ft 283 kts 198°
2026-05-01 14:40 44.49088 9.15982 30453 ft 283 kts 198°
2026-05-01 14:40 44.47205 9.15148 30671 ft 284 kts 198°
2026-05-01 14:41 44.45316 9.14312 30898 ft 284 kts 199°
2026-05-01 14:41 44.43410 9.13468 31093 ft 285 kts 199°
2026-05-01 14:41 44.41513 9.12630 31303 ft 286 kts 199°
2026-05-01 14:41 44.39631 9.11798 31502 ft 287 kts 199°
2026-05-01 14:42 44.37720 9.10954 31673 ft 288 kts 199°
2026-05-01 14:42 44.35818 9.10116 31922 ft 287 kts 199°
2026-05-01 14:42 44.33890 9.09265 32098 ft 289 kts 199°
2026-05-01 14:42 44.31958 9.08414 32249 ft 291 kts 199°
2026-05-01 14:43 44.30024 9.07562 32464 ft 291 kts 199°
2026-05-01 14:43 44.28074 9.06705 32649 ft 292 kts 199°
2026-05-01 14:43 44.26157 9.05862 32867 ft 291 kts 199°
2026-05-01 14:43 44.24205 9.05004 33070 ft 291 kts 199°
2026-05-01 14:44 44.22247 9.04145 33215 ft 293 kts 200°
2026-05-01 14:44 44.18444 9.02476 33567 ft 294 kts 200°
2026-05-01 14:44 44.16505 9.01627 33723 ft 296 kts 200°
2026-05-01 14:45 44.14516 9.00756 33870 ft 297 kts 200°
2026-05-01 14:45 44.10570 8.99030 34219 ft 298 kts 200°
2026-05-01 14:45 44.08592 8.98166 34389 ft 299 kts 200°
2026-05-01 14:46 44.06583 8.97288 34558 ft 299 kts 200°
2026-05-01 14:46 44.02610 8.95556 34857 ft 300 kts 200°
2026-05-01 14:46 44.00591 8.94676 34974 ft 302 kts 200°
2026-05-01 14:47 43.98582 8.93801 35117 ft 302 kts 200°
2026-05-01 14:47 43.96584 8.92932 35233 ft 304 kts 200°
2026-05-01 14:48 43.90331 8.90212 35275 ft 320 kts 200°
2026-05-01 14:48 43.83746 8.87356 35275 ft 337 kts 200°
2026-05-01 14:49 43.74547 8.83380 35249 ft 355 kts 200°
2026-05-01 14:50 43.64896 8.79224 35244 ft 369 kts 200°
2026-05-01 14:51 43.57499 8.76047 35249 ft 377 kts 200°
2026-05-01 14:52 43.49903 8.72793 35245 ft 383 kts 200°
2026-05-01 14:52 43.45166 8.69490 35245 ft 379 kts 221°
2026-05-01 14:53 43.43124 8.67200 35244 ft 379 kts 225°
2026-05-01 14:53 43.39125 8.62363 35249 ft 383 kts 226°
2026-05-01 14:54 43.35145 8.57475 35250 ft 385 kts 226°
2026-05-01 14:54 43.31139 8.52548 35255 ft 388 kts 226°
2026-05-01 14:55 43.27101 8.47585 35244 ft 390 kts 226°
2026-05-01 14:55 43.23043 8.42602 35248 ft 392 kts 226°
2026-05-01 14:56 43.18976 8.37615 35251 ft 394 kts 226°
2026-05-01 14:56 43.14881 8.32603 35243 ft 395 kts 226°
2026-05-01 14:56 43.12823 8.30087 35396 ft 396 kts 226°
2026-05-01 14:57 43.10775 8.27584 35273 ft 399 kts 226°
2026-05-01 14:57 43.04525 8.19965 35254 ft 401 kts 226°
2026-05-01 14:58 43.00369 8.14911 35256 ft 401 kts 226°
2026-05-01 14:58 42.96173 8.09818 35251 ft 402 kts 226°
2026-05-01 14:59 42.91984 8.04742 35253 ft 402 kts 226°
2026-05-01 14:59 42.87797 7.99679 35250 ft 402 kts 226°
2026-05-01 15:00 42.81530 7.92116 35253 ft 401 kts 226°
2026-05-01 15:01 42.77643 7.87437 35247 ft 401 kts 226°
2026-05-01 15:01 42.73481 7.82436 35252 ft 400 kts 226°
2026-05-01 15:02 42.69281 7.77398 35249 ft 400 kts 226°
2026-05-01 15:02 42.65081 7.72370 35249 ft 399 kts 226°
2026-05-01 15:03 42.60923 7.67403 35248 ft 398 kts 226°
2026-05-01 15:03 42.56758 7.62434 35240 ft 398 kts 226°
2026-05-01 15:04 42.52614 7.57501 35243 ft 397 kts 226°
2026-05-01 15:04 42.48465 7.52570 35246 ft 396 kts 226°
2026-05-01 15:05 42.44295 7.47624 35238 ft 396 kts 226°
2026-05-01 15:05 42.40158 7.42725 35241 ft 395 kts 226°
2026-05-01 15:06 42.36004 7.37817 35241 ft 394 kts 226°
2026-05-01 15:06 42.31872 7.32942 35243 ft 394 kts 225°
2026-05-01 15:07 42.27727 7.28060 35234 ft 394 kts 225°
2026-05-01 15:07 42.23559 7.23162 35231 ft 394 kts 225°
2026-05-01 15:08 42.19426 7.18312 35223 ft 394 kts 225°
2026-05-01 15:08 42.15259 7.13433 35185 ft 391 kts 225°
2026-05-01 15:09 42.11148 7.08627 35223 ft 390 kts 225°
2026-05-01 15:09 42.07038 7.03830 35234 ft 390 kts 225°
2026-05-01 15:10 42.02908 6.99019 35240 ft 390 kts 225°
2026-05-01 15:10 41.96853 6.91667 35229 ft 392 kts 227°
2026-05-01 15:11 41.90868 6.84310 35237 ft 387 kts 227°
2026-05-01 15:12 41.86849 6.79388 35236 ft 387 kts 227°
2026-05-01 15:12 41.80899 6.72123 35232 ft 386 kts 226°
2026-05-01 15:14 41.70979 6.60060 35232 ft 384 kts 226°
2026-05-01 15:14 41.65037 6.52861 35234 ft 383 kts 226°
2026-05-01 15:15 41.57108 6.43283 35227 ft 382 kts 226°
2026-05-01 15:16 41.49213 6.33781 35227 ft 381 kts 225°
2026-05-01 15:18 41.39336 6.21938 35225 ft 381 kts 225°
2026-05-01 15:19 41.31419 6.12481 35223 ft 381 kts 226°
2026-05-01 15:19 41.25496 6.05427 35219 ft 380 kts 225°
2026-05-01 15:20 41.19583 5.98404 35220 ft 380 kts 225°
2026-05-01 15:21 41.15619 5.93705 35219 ft 380 kts 225°
2026-05-01 15:21 41.11658 5.89018 35217 ft 380 kts 225°
2026-05-01 15:22 41.05720 5.82006 35215 ft 380 kts 225°
2026-05-01 15:22 41.01755 5.77334 35215 ft 379 kts 225°
2026-05-01 15:23 40.97806 5.72688 35214 ft 379 kts 225°
2026-05-01 15:23 40.94065 5.67773 35224 ft 375 kts 235°
2026-05-01 15:24 40.90988 5.62183 35216 ft 375 kts 238°
2026-05-01 15:24 40.88036 5.56649 35214 ft 375 kts 238°
2026-05-01 15:25 40.85007 5.50984 34846 ft 377 kts 237°
2026-05-01 15:25 40.83498 5.48168 34370 ft 381 kts 237°
2026-05-01 15:25 40.81942 5.45268 33804 ft 384 kts 237°
2026-05-01 15:26 40.80376 5.42355 33239 ft 387 kts 237°
2026-05-01 15:26 40.78836 5.39494 32688 ft 389 kts 237°
2026-05-01 15:26 40.77253 5.36556 32127 ft 391 kts 237°
2026-05-01 15:26 40.75675 5.33633 31570 ft 392 kts 236°
2026-05-01 15:27 40.74068 5.30659 31006 ft 393 kts 236°
2026-05-01 15:27 40.72464 5.27693 30450 ft 394 kts 236°
2026-05-01 15:27 40.70882 5.24770 29916 ft 394 kts 236°
2026-05-01 15:28 40.67675 5.18854 28872 ft 395 kts 236°
2026-05-01 15:28 40.66095 5.15944 28359 ft 395 kts 236°
2026-05-01 15:28 40.64496 5.13000 27841 ft 395 kts 236°
2026-05-01 15:29 40.61286 5.07103 26807 ft 395 kts 236°
2026-05-01 15:29 40.59685 5.04165 26291 ft 395 kts 236°
2026-05-01 15:29 40.56500 4.98328 25259 ft 391 kts 236°
2026-05-01 15:30 40.53349 4.92565 24230 ft 388 kts 236°
2026-05-01 15:31 40.47089 4.81147 22197 ft 382 kts 235°
2026-05-01 15:31 40.43990 4.75510 21184 ft 377 kts 235°
2026-05-01 15:32 40.40926 4.69945 20170 ft 372 kts 235°
2026-05-01 15:32 40.37293 4.65338 19322 ft 362 kts 209°
2026-05-01 15:33 40.31282 4.60066 18527 ft 345 kts 214°
2026-05-01 15:34 40.25207 4.54763 16544 ft 351 kts 214°